Regional Weather Roundup
Issued by NWS

Home | Current Version | Previous Version | Text Only | Print | Product List | Glossary On
Versions: 1 2 3 4 5 6 7 8 9 10 11 12 13 14 15 16 17 18 19 20 21 22 23 24 25 26 27 28 29 30 31 32 33 34 35 36 37 38 39 40 41 42 43 44 45 46 47 48 49 50
000
ASUS43 KBIS 271902
RWRND

NORTH DAKOTA REGIONAL WEATHER ROUNDUP
NATIONAL WEATHER SERVICE BISMARCK ND
200 PM CDT THU AUG 27 2015

NOTE: "FAIR" INDICATES FEW OR NO CLOUDS BELOW 12,000 FEET WITH NO
SIGNIFICANT WEATHER AND/OR OBSTRUCTIONS TO VISIBILITY.


NDZ001>003-009>011-017-272000-
NORTHWEST NORTH DAKOTA

CITY           SKY/WX    TMP DP  RH WIND       PRES   REMARKS
WILLISTON      MOSUNNY   80  64  58 CALM      29.94F
MINOT          PTSUNNY   77  61  57 SE7       29.94F
MINOT AFB      MOSUNNY   83  62  50 CALM      29.92F
$$

NDZ018>021-031>035-040>046-272000-
SOUTHWEST NORTH DAKOTA

CITY           SKY/WX    TMP DP  RH WIND       PRES   REMARKS
BISMARCK       PTSUNNY   77  67  71 VRB5      29.97F
DICKINSON      PTSUNNY   84  58  40 VRB3      29.95F
GARRISON         N/A     78  65  63 S5        29.95F
HETTINGER ARPT MOSUNNY   81  58  45 VRB7      29.98F
$$

NDZ004>008-012>016-024-026-027-054-272000-
NORTHEAST NORTH DAKOTA

CITY           SKY/WX    TMP DP  RH WIND       PRES   REMARKS
GRAND FORKS    PTSUNNY   75  60  59 S9        29.94F
GRND FRKS AFB  PTSUNNY   76  59  56 SE9       29.95F
DEVILS LAKE    PTSUNNY   75  61  60 SE10      29.94S
$$

NDZ022-023-025-028>030-036>039-047>053-272000-
SOUTHEAST NORTH DAKOTA

CITY           SKY/WX    TMP DP  RH WIND       PRES   REMARKS
FARGO          MOSUNNY   77  63  61 S5        29.95F
JAMESTOWN      PTSUNNY   75  65  70 S7        29.96S
$$



USA.gov is the U.S. government's official web portal to all federal, state and local government web resources and services.